Main page
METAR-TAF:

METAR-TAF

Airports :

Mossoró Airport

Mossoró, Rio Grande do Norte, Brazil

latitude: 05-12S, longitude: 037-22W, elevation: 23 m

Current weather observation

The report was made 1 hour and 1 minutes ago, at 16:00 UTC
Wind 6 kt from the East/Southeast
Temperature 36°C
Humidity 47%
Pressure 1009 hPa
Visibility 10 km or more
Broken clouds at a height of 2500 ft

METAR: SBMS 251600Z 11006KT 9999 BKN025 36/23 Q1009

Time: 14:01 (17:01 UTC)


TAF: missing

Weather observations and forecasts of more than 4000 airports (METAR and TAF reports).

The available stations are represented by yellow and red dots on the map.

Hover mouse over dot to see the name of the station.

Then click to see weather observations and forecasts.

To change the map : click on the green buttons with a black cross to zoom in, on the green button with a dash to zoom out, or on the green arrows for adjacent maps.


METAR-TAF: